Location: Newark
(9.3150°S, 75.0000°W)
Time: 03:02:49
(UTC+00:00)

Hubble Space Telescope - Visible Passes

Search period start: 19 September 2020 00:00
Search period end: 29 September 2020 00:00
Orbit: 536 x 540 km, 28.5° (Epoch: 18 September)

Date Brightness Start Highest point End Pass type
(mag) Time Alt. Az. Time Alt. Az. Time Alt. Az.
19 Sep 3.2 00:13:12 10° WSW 00:15:51 16° SSW 00:17:57 12° SSE visible
20 Sep 3.4 00:03:16 10° SW 00:05:16 13° SSW 00:07:15 10° S visible
20 Sep 3.5 23:53:45 10° SSW 23:54:42 11° SSW 23:55:38 10° S visible
